timestamp,wind_dir_avg,wind_spd_avg,wind_spd_max_dir,wind_spd_gust,battery_voltage,lat,long
2021-06-11 00:04:01+00:00,42.0,9.54,36.0,11.92,12.57,47.59359,-54.27349
2021-06-11 00:14:01+00:00,43.0,9.76,45.0,12.27,12.57,47.59359,-54.27349
2021-06-11 00:24:01+00:00,40.0,9.33,41.0,10.59,12.57,47.59359,-54.27349
2021-06-11 00:34:01+00:00,38.0,8.83,38.0,9.89,12.57,47.59359,-54.27349
2021-06-11 00:44:01+00:00,50.0,9.1,52.0,10.14,12.57,47.59359,-54.27349
2021-06-11 00:54:01+00:00,46.0,8.74,45.0,9.84,12.57,47.59359,-54.27349
2021-06-11 01:04:01+00:00,31.0,8.75,31.0,9.88,12.57,47.59359,-54.27349
2021-06-11 01:14:01+00:00,33.0,9.15,36.0,10.2,12.49,47.59359,-54.27349
2021-06-11 01:24:01+00:00,25.0,7.32,42.0,8.81,12.49,47.59359,-54.27349
2021-06-11 01:34:01+00:00,15.0,7.65,17.0,8.41,12.49,47.59359,-54.27349
2021-06-11 01:44:01+00:00,12.0,6.86,15.0,7.62,12.49,47.59359,-54.27349
2021-06-11 01:54:01+00:00,18.0,6.44,24.0,7.77,12.49,47.59359,-54.27349
2021-06-11 02:04:01+00:00,11.0,5.63,15.0,6.34,12.49,47.59359,-54.27349
2021-06-11 02:14:01+00:00,357.0,6.23,1.0,7.39,12.49,47.59359,-54.27349
2021-06-11 02:24:01+00:00,343.0,5.17,344.0,5.91,12.49,47.59359,-54.27349
2021-06-11 02:34:01+00:00,341.0,4.65,350.0,5.39,12.49,47.59359,-54.27349
2021-06-11 02:44:01+00:00,343.0,4.0,338.0,4.71,12.49,47.59359,-54.27349
2021-06-11 02:54:01+00:00,347.0,3.96,355.0,4.82,12.49,47.59359,-54.27349
2021-06-11 03:04:01+00:00,350.0,4.31,348.0,5.28,12.49,47.59359,-54.27349
2021-06-11 03:14:01+00:00,330.0,4.66,326.0,5.05,12.49,47.59359,-54.27349
2021-06-11 03:24:01+00:00,332.0,4.07,328.0,5.28,12.49,47.59359,-54.27349
2021-06-11 03:34:01+00:00,353.0,6.76,356.0,7.73,12.49,47.59359,-54.27349
2021-06-11 03:44:01+00:00,347.0,7.77,345.0,9.01,12.49,47.59359,-54.27349
2021-06-11 03:54:01+00:00,353.0,8.09,353.0,9.21,12.49,47.59359,-54.27349
2021-06-11 04:04:01+00:00,339.0,7.03,345.0,8.47,12.49,47.59359,-54.27349
2021-06-11 04:14:01+00:00,335.0,6.63,328.0,7.78,12.41,47.59359,-54.27349
2021-06-11 04:24:01+00:00,342.0,7.38,348.0,8.54,12.41,47.59359,-54.27349
2021-06-11 04:34:01+00:00,353.0,8.13,356.0,9.55,12.41,47.59359,-54.27349
2021-06-11 04:44:01+00:00,353.0,7.73,359.0,8.82,12.41,47.59359,-54.27349
2021-06-11 04:54:01+00:00,340.0,6.16,347.0,7.5,12.41,47.59359,-54.27349
2021-06-11 05:04:01+00:00,345.0,6.23,345.0,6.76,12.41,47.59359,-54.27349
2021-06-11 05:14:01+00:00,341.0,7.09,337.0,7.94,12.41,47.59359,-54.27349
2021-06-11 05:24:01+00:00,338.0,6.49,339.0,7.48,12.41,47.59359,-54.27349
2021-06-11 05:34:01+00:00,346.0,7.44,347.0,9.3,12.41,47.59359,-54.27349
2021-06-11 05:44:01+00:00,337.0,6.51,342.0,7.57,12.41,47.59359,-54.27349
2021-06-11 05:54:01+00:00,332.0,7.83,333.0,8.87,12.41,47.59359,-54.27349
2021-06-11 06:04:01+00:00,343.0,6.89,335.0,8.47,12.41,47.59359,-54.27349
2021-06-11 06:14:00+00:00,334.0,7.67,333.0,8.82,12.33,47.59359,-54.27349
2021-06-11 06:24:00+00:00,328.0,7.83,332.0,9.09,12.33,47.59359,-54.27349
2021-06-11 06:34:00+00:00,326.0,8.23,325.0,9.43,12.33,47.59359,-54.27349
2021-06-11 06:44:00+00:00,334.0,8.14,334.0,9.23,12.33,47.59359,-54.27349
2021-06-11 06:54:00+00:00,334.0,9.45,335.0,11.32,12.33,47.59359,-54.27349
2021-06-11 07:04:00+00:00,335.0,9.15,332.0,10.31,12.33,47.59359,-54.27349
2021-06-11 07:14:00+00:00,340.0,7.86,344.0,9.2,12.33,47.59359,-54.27349
2021-06-11 07:24:00+00:00,335.0,7.98,337.0,8.88,12.33,47.59359,-54.27349
2021-06-11 07:34:00+00:00,335.0,7.96,325.0,9.5,12.33,47.59359,-54.27349
2021-06-11 07:44:00+00:00,343.0,6.53,342.0,7.68,12.33,47.59359,-54.27349
2021-06-11 07:54:00+00:00,343.0,9.05,337.0,9.68,12.33,47.59359,-54.27349
2021-06-11 08:04:00+00:00,334.0,8.33,336.0,10.11,12.33,47.59359,-54.27349
2021-06-11 08:14:01+00:00,335.0,9.23,330.0,10.21,12.33,47.59359,-54.27349
2021-06-11 08:24:01+00:00,333.0,8.26,335.0,9.35,12.33,47.59359,-54.27349
2021-06-11 08:34:01+00:00,341.0,10.02,351.0,11.39,12.33,47.59359,-54.27349
2021-06-11 08:44:01+00:00,335.0,10.72,339.0,11.77,12.33,47.59359,-54.27349
2021-06-11 08:54:01+00:00,334.0,7.37,318.0,9.04,12.33,47.59359,-54.27349
2021-06-11 09:04:01+00:00,334.0,8.64,336.0,9.6,12.33,47.59359,-54.27349
2021-06-11 09:14:00+00:00,326.0,9.84,324.0,12.34,12.41,47.59359,-54.27349
2021-06-11 09:24:00+00:00,337.0,7.87,330.0,9.16,12.41,47.59359,-54.27349
2021-06-11 09:34:00+00:00,341.0,8.14,333.0,9.34,12.41,47.59359,-54.27349
2021-06-11 09:44:00+00:00,337.0,7.77,344.0,9.12,12.41,47.59359,-54.27349
2021-06-11 09:54:00+00:00,341.0,8.96,330.0,10.11,12.41,47.59359,-54.27349
2021-06-11 10:04:00+00:00,342.0,8.84,346.0,9.99,12.41,47.59359,-54.27349
2021-06-11 10:14:01+00:00,332.0,7.44,329.0,9.71,12.81,47.59359,-54.27349
2021-06-11 10:24:01+00:00,331.0,7.51,337.0,9.05,12.81,47.59359,-54.27349
2021-06-11 10:34:01+00:00,329.0,6.65,328.0,7.46,12.81,47.59359,-54.27349
2021-06-11 10:44:01+00:00,340.0,8.58,337.0,9.85,12.81,47.59359,-54.27349
2021-06-11 10:54:01+00:00,345.0,7.58,347.0,8.89,12.81,47.59359,-54.27349
2021-06-11 11:04:01+00:00,344.0,7.23,332.0,8.73,12.81,47.59359,-54.27349
2021-06-11 11:14:01+00:00,343.0,5.93,337.0,7.18,13.76,47.59359,-54.27349
2021-06-11 11:24:01+00:00,350.0,6.74,350.0,7.78,13.76,47.59359,-54.27349
2021-06-11 11:34:01+00:00,3.0,8.08,4.0,8.65,13.76,47.59359,-54.27349
2021-06-11 11:44:01+00:00,4.0,7.83,4.0,9.26,13.76,47.59359,-54.27349
2021-06-11 11:54:01+00:00,356.0,7.85,358.0,9.01,13.76,47.59359,-54.27349
2021-06-11 12:04:01+00:00,3.0,5.89,2.0,6.68,13.76,47.59359,-54.27349
2021-06-11 12:14:01+00:00,356.0,6.71,351.0,7.96,14.0,47.59359,-54.27349
2021-06-11 12:24:01+00:00,0.0,6.91,356.0,8.83,14.0,47.59359,-54.27349
2021-06-11 12:34:01+00:00,4.0,5.62,10.0,6.72,14.0,47.59359,-54.27349
2021-06-11 12:44:01+00:00,2.0,4.76,358.0,5.74,14.0,47.59359,-54.27349
2021-06-11 12:54:01+00:00,352.0,7.29,356.0,8.45,14.0,47.59359,-54.27349
2021-06-11 13:04:01+00:00,353.0,9.07,352.0,10.23,14.0,47.59359,-54.27349
2021-06-11 13:14:01+00:00,359.0,8.48,1.0,9.69,13.6,47.59359,-54.27349
2021-06-11 13:24:01+00:00,4.0,7.45,4.0,8.34,13.6,47.59359,-54.27349
2021-06-11 13:34:01+00:00,1.0,6.67,351.0,8.24,13.6,47.59359,-54.27349
2021-06-11 13:44:01+00:00,355.0,7.13,0.0,8.03,13.6,47.59359,-54.27349
2021-06-11 13:54:01+00:00,2.0,5.92,6.0,6.91,13.6,47.59359,-54.27349
2021-06-11 14:04:01+00:00,356.0,6.21,356.0,7.08,13.6,47.59359,-54.27349
2021-06-11 14:14:01+00:00,3.0,6.78,1.0,8.28,13.92,47.59359,-54.27349
2021-06-11 14:24:01+00:00,359.0,7.05,358.0,7.8,13.92,47.59359,-54.27349
2021-06-11 14:34:01+00:00,349.0,8.11,351.0,9.79,13.92,47.59359,-54.27349
2021-06-11 14:44:01+00:00,358.0,6.83,356.0,7.76,13.92,47.59359,-54.27349
2021-06-11 14:54:01+00:00,7.0,7.39,6.0,8.87,13.92,47.59359,-54.27349
2021-06-11 15:04:01+00:00,359.0,6.37,1.0,7.67,13.92,47.59359,-54.27349
2021-06-11 15:14:01+00:00,12.0,3.01,25.0,4.06,13.68,47.59359,-54.27349
2021-06-11 15:24:01+00:00,333.0,8.71,337.0,9.97,13.68,47.59359,-54.27349
2021-06-11 15:34:01+00:00,341.0,6.43,337.0,7.22,13.68,47.59359,-54.27349
2021-06-11 15:44:01+00:00,340.0,7.06,341.0,8.55,13.68,47.59359,-54.27349
2021-06-11 15:54:01+00:00,319.0,6.64,322.0,7.7,13.68,47.59359,-54.27349
2021-06-11 16:04:01+00:00,336.0,7.17,340.0,9.0,13.68,47.59359,-54.27349
2021-06-11 16:14:01+00:00,331.0,7.18,336.0,7.92,13.68,47.59359,-54.27349
2021-06-11 16:24:01+00:00,311.0,6.6,313.0,7.91,13.68,47.59359,-54.27349
2021-06-11 16:34:01+00:00,307.0,7.95,311.0,9.58,13.68,47.59359,-54.27349
2021-06-11 16:44:01+00:00,327.0,5.42,323.0,6.05,13.68,47.59359,-54.27349
2021-06-11 16:54:01+00:00,321.0,4.72,327.0,5.78,13.68,47.59359,-54.27349
2021-06-11 17:04:01+00:00,326.0,5.48,327.0,6.62,13.68,47.59359,-54.27349
2021-06-11 17:14:01+00:00,334.0,4.92,334.0,5.48,13.84,47.59359,-54.27349
2021-06-11 17:24:01+00:00,334.0,4.57,333.0,5.68,13.84,47.59359,-54.27349
2021-06-11 17:34:01+00:00,311.0,3.94,316.0,4.46,13.84,47.59359,-54.27349
2021-06-11 17:44:01+00:00,259.0,2.64,251.0,3.34,13.84,47.59359,-54.27349
2021-06-11 17:54:01+00:00,283.0,7.07,282.0,7.61,13.84,47.59359,-54.27349
2021-06-11 18:04:01+00:00,278.0,4.77,279.0,5.27,13.84,47.59359,-54.27349
2021-06-11 18:14:01+00:00,285.0,5.92,284.0,6.4,13.84,47.59359,-54.27349
2021-06-11 18:24:01+00:00,295.0,6.37,290.0,7.07,13.84,47.59359,-54.27349
2021-06-11 18:34:01+00:00,283.0,7.14,285.0,7.75,13.84,47.59359,-54.27349
2021-06-11 18:44:01+00:00,287.0,5.27,286.0,5.56,13.84,47.59359,-54.27349
2021-06-11 18:54:01+00:00,279.0,7.39,281.0,8.28,13.84,47.59359,-54.27349
2021-06-11 19:04:01+00:00,285.0,7.26,285.0,8.15,13.84,47.59359,-54.27349
2021-06-11 19:14:01+00:00,275.0,6.35,283.0,7.18,13.76,47.59359,-54.27349
2021-06-11 19:24:01+00:00,282.0,6.0,285.0,6.98,13.76,47.59359,-54.27349
2021-06-11 19:34:01+00:00,275.0,6.36,273.0,7.17,13.76,47.59359,-54.27349
2021-06-11 19:44:01+00:00,282.0,5.32,284.0,5.71,13.76,47.59359,-54.27349
2021-06-11 19:54:01+00:00,271.0,5.14,276.0,5.88,13.76,47.59359,-54.27349
2021-06-11 20:04:01+00:00,271.0,4.9,271.0,6.01,13.76,47.59359,-54.27349
2021-06-11 20:14:01+00:00,270.0,5.58,274.0,6.37,13.92,47.59359,-54.27349
2021-06-11 20:24:01+00:00,257.0,5.62,263.0,6.38,13.92,47.59359,-54.27349
2021-06-11 20:34:01+00:00,258.0,5.63,258.0,6.45,13.92,47.59359,-54.27349
2021-06-11 20:44:01+00:00,271.0,6.11,273.0,6.62,13.92,47.59359,-54.27349
2021-06-11 20:54:01+00:00,273.0,8.76,273.0,10.12,13.92,47.59359,-54.27349
2021-06-11 21:04:01+00:00,284.0,7.66,285.0,8.62,13.92,47.59359,-54.27349
2021-06-11 21:14:01+00:00,276.0,5.56,276.0,5.96,13.68,47.59359,-54.27349
2021-06-11 21:24:01+00:00,272.0,4.83,272.0,5.31,13.68,47.59359,-54.27349
2021-06-11 21:34:01+00:00,271.0,3.89,270.0,4.02,13.68,47.59359,-54.27349
2021-06-11 21:44:01+00:00,287.0,4.33,287.0,4.61,13.68,47.59359,-54.27349
2021-06-11 21:54:01+00:00,320.0,4.86,316.0,5.41,13.68,47.59359,-54.27349
2021-06-11 22:04:01+00:00,323.0,3.25,324.0,3.46,13.68,47.59359,-54.27349
2021-06-11 22:14:01+00:00,296.0,3.05,295.0,3.47,13.53,47.59359,-54.27349
2021-06-11 22:24:01+00:00,289.0,2.36,291.0,2.62,13.53,47.59359,-54.27349
2021-06-11 22:34:01+00:00,153.0,0.65,192.0,1.04,13.53,47.59359,-54.27349
2021-06-11 22:44:01+00:00,115.0,1.14,108.0,1.61,13.53,47.59359,-54.27349
2021-06-11 22:54:01+00:00,212.0,2.16,202.0,3.13,13.53,47.59359,-54.27349
2021-06-11 23:04:01+00:00,159.0,2.42,154.0,2.84,13.53,47.59359,-54.27349
2021-06-11 23:14:01+00:00,227.0,1.11,238.0,1.77,13.21,47.59359,-54.27349
2021-06-11 23:24:01+00:00,277.0,3.59,285.0,4.35,13.21,47.59359,-54.27349
2021-06-11 23:34:01+00:00,276.0,3.92,273.0,4.18,13.21,47.59359,-54.27349
2021-06-11 23:44:01+00:00,277.0,4.01,279.0,4.39,13.21,47.59359,-54.27349
2021-06-11 23:54:01+00:00,279.0,4.57,278.0,4.84,13.21,47.59359,-54.27349
